TimeEDT,TemperatureF,Dew PointF,Humidity,Sea Level PressureIn,VisibilityMPH,Wind Direction,Wind SpeedMPH,Gust SpeedMPH,PrecipitationIn,Events,Conditions,WindDirDegrees,DateUTC
12:53 AM,82.0,75.9,82,29.96,10.0,North,3.5,-,N/A,,Clear,10,2013-08-07 04:53:00
1:53 AM,81.0,75.9,85,29.94,10.0,Calm,Calm,-,N/A,,Clear,0,2013-08-07 05:53:00
2:53 AM,81.0,75.9,85,29.93,10.0,Calm,Calm,-,N/A,,Scattered Clouds,0,2013-08-07 06:53:00
3:00 AM,80.6,75.2,84,29.93,10.0,Calm,Calm,-,N/A,,Mostly Cloudy,0,2013-08-07 07:00:00
3:08 AM,80.6,75.2,84,29.93,10.0,Calm,Calm,-,N/A,,Scattered Clouds,0,2013-08-07 07:08:00
3:53 AM,81.0,75.9,85,29.92,10.0,Calm,Calm,-,N/A,,Clear,0,2013-08-07 07:53:00
4:53 AM,81.0,75.9,85,29.91,10.0,Calm,Calm,-,N/A,,Clear,0,2013-08-07 08:53:00
5:53 AM,81.0,75.9,85,29.91,10.0,ENE,3.5,-,N/A,,Clear,70,2013-08-07 09:53:00
6:53 AM,80.1,75.9,87,29.92,10.0,NNE,3.5,-,N/A,,Clear,20,2013-08-07 10:53:00
7:53 AM,82.9,77.0,82,29.94,10.0,NE,4.6,-,N/A,,Clear,40,2013-08-07 11:53:00
8:53 AM,84.0,75.9,76,29.95,10.0,ESE,4.6,-,N/A,,Scattered Clouds,110,2013-08-07 12:53:00
9:53 AM,84.9,77.0,77,29.96,10.0,SE,8.1,-,N/A,,Partly Cloudy,130,2013-08-07 13:53:00
10:53 AM,86.0,75.9,72,29.96,10.0,SE,6.9,-,N/A,,Clear,130,2013-08-07 14:53:00
11:53 AM,86.0,77.0,74,29.96,10.0,SSE,8.1,-,N/A,,Partly Cloudy,160,2013-08-07 15:53:00
12:53 PM,86.0,75.0,70,29.95,10.0,SSE,9.2,-,N/A,,Clear,160,2013-08-07 16:53:00
1:53 PM,87.1,75.9,69,29.94,8.0,SSE,10.4,-,N/A,,Partly Cloudy,160,2013-08-07 17:53:00
2:53 PM,86.0,75.0,70,29.93,9.0,SSE,11.5,-,N/A,,Partly Cloudy,160,2013-08-07 18:53:00
3:53 PM,87.1,75.9,69,29.92,10.0,SE,9.2,-,N/A,,Partly Cloudy,140,2013-08-07 19:53:00
4:53 PM,84.9,73.9,69,29.91,10.0,ESE,6.9,-,N/A,,Clear,120,2013-08-07 20:53:00
5:53 PM,84.9,73.9,69,29.91,10.0,SSE,6.9,-,N/A,,Partly Cloudy,150,2013-08-07 21:53:00
6:53 PM,84.0,75.0,74,29.91,10.0,ESE,10.4,-,N/A,,Partly Cloudy,120,2013-08-07 22:53:00
7:53 PM,82.9,73.9,74,29.91,10.0,East,8.1,-,N/A,,Partly Cloudy,100,2013-08-07 23:53:00
8:53 PM,82.9,73.0,72,29.93,10.0,East,10.4,-,N/A,,Clear,90,2013-08-08 00:53:00
9:53 PM,84.0,75.0,74,29.94,10.0,ESE,10.4,-,N/A,,Partly Cloudy,110,2013-08-08 01:53:00
10:53 PM,82.9,75.0,77,29.95,10.0,ESE,12.7,-,0.00,Rain,Rain,110,2013-08-08 02:53:00
11:53 PM,82.0,75.0,79,29.94,10.0,ESE,10.4,-,0.00,,Partly Cloudy,120,2013-08-08 03:53:00